Wind_Speed
52 52 51 50 50 49 50 49 49 49 49 50 49 48 48 48 48 48 48 49 49 50 50 51 51 52 52 53 53 53 53 54 54 54 54 55 55 55 55 55 55 55 55 55 55 55 55 55 55 55 55 55 55 55 55 56 56 56 56 55 55 54 53 53 53 54 55 56 57 58 58 58 57 57 58 59 61 63 64 65 65 64 64 63 63 62
53 53 53 52 51 51 51 51 50 50 50 51 50 50 49 50 50 50 50 50 51 51 52 52 53 53 54 54 55 55 55 56 56 56 56 57 57 57 57 57 57 57 57 57 57 57 57 57 56 56 56 56 56 56 56 57 57 57 57 57 57 56 56 55 55 55 55 56 57 58 59 59 59 59 59 59 60 62 63 64 65 64 63 62 61 61
53 53 54 54 53 53 52 53 52 52 52 52 52 52 51 51 52 52 52 52 53 53 54 54 55 55 56 56 57 57 57 57 58 58 58 58 59 59 59 59 59 59 59 59 59 59 59 58 58 58 58 58 57 57 57 57 57 58 58 58 58 58 58 58 57 57 56 57 57 58 59 60 61 61 61 61 61 62 63 64 65 65 64 63 62 61
53 53 54 55 54 54 54 54 54 54 54 54 54 54 53 53 54 54 54 55 55 55 56 56 56 57 58 58 58 59 59 59 59 60 60 60 60 60 60 61 61 61 61 61 61 61 61 60 60 60 60 59 59 59 59 59 59 59 59 59 59 59 60 59 59 59 58 58 58 59 59 60 61 62 62 63 63 63 64 64 65 66 66 66 65 63
53 53 54 54 54 55 56 56 56 56 56 56 56 56 56 56 56 57 57 57 58 58 58 59 59 59 60 60 60 61 61 61 61 61 62 62 62 62 62 62 63 63 63 63 63 62 62 62 62 62 62 61 61 61 61 60 60 60 60 60 60 60 61 61 61 60 60 60 60 60 60 61 62 63 63 64 64 65 65 65 65 66 67 67 67 66
53 53 54 54 55 55 56 56 57 57 57 58 58 58 58 59 59 59 60 60 60 61 61 62 62 62 62 62 63 63 63 63 63 63 63 64 64 64 64 64 65 65 65 65 64 64 64 64 64 64 63 63 63 63 63 62 62 62 62 62 61 62 62 62 62 62 62 62 62 62 62 62 63 63 64 65 65 66 66 66 66 66 67 67 67 67
53 54 55 55 56 56 57 57 58 58 58 59 60 60 60 61 61 62 62 63 63 63 64 64 65 65 65 65 65 65 65 65 65 65 65 65 65 66 66 66 66 66 66 66 66 66 66 66 66 65 65 65 65 64 64 64 64 64 63 63 63 63 63 63 63 64 64 64 64 64 64 64 64 64 65 65 66 67 67 67 68 68 67 67 67 67
54 55 55 55 56 57 58 58 59 59 60 60 61 62 62 62 63 63 64 64 65 65 66 66 66 67 67 67 67 67 67 67 67 67 67 67 66 67 67 67 67 67 68 68 68 68 68 67 67 67 67 67 66 66 66 65 65 65 65 65 65 65 65 65 65 65 65 65 66 66 66 65 65 65 66 66 66 67 67 68 68 68 69 68 68 67
55 55 56 57 57 57 58 60 61 61 61 62 63 63 63 64 64 65 65 65 66 66 66 66 67 67 67 67 67 67 67 67 66 66 66 66 66 66 66 66 66 67 67 67 68 68 68 68 68 68 68 68 68 67 67 67 66 66 66 66 66 66 66 67 67 67 67 67 67 67 67 67 67 67 67 67 67 67 68 68 68 69 69 69 69 68
56 56 57 58 58 59 59 60 62 62 62 62 63 64 64 64 65 65 65 65 65 65 65 64 64 64 64 64 64 63 63 63 62 62 61 61 61 62 62 62 62 63 63 64 65 65 66 67 67 68 68 68 68 68 68 68 68 67 67 67 67 67 67 68 68 68 68 69 69 69 69 69 69 69 69 68 68 68 68 68 68 69 69 69 69 69
57 57 58 59 60 60 60 61 62 62 63 62 63 64 64 63 63 62 62 62 61 60 60 59 59 58 57 57 57 56 55 54 54 54 53 53 53 53 53 54 54 55 56 57 58 59 60 61 63 64 65 66 67 67 68 68 68 68 68 68 68 68 68 68 68 69 69 70 70 70 70 70 70 70 70 70 70 69 69 69 69 69 69 69 69 68
58 58 59 59 60 60 60 61 61 61 61 61 60 60 60 59 58 57 56 55 55 54 53 52 51 50 49 48 48 48 47 46 45 45 45 45 44 44 45 45 45 46 46 47 49 50 52 53 55 57 59 60 62 63 64 65 66 67 68 68 68 68 68 69 69 69 70 70 71 71 71 71 71 71 71 71 71 71 70 70 69 69 69 69 68 68
58 58 58 59 59 59 59 58 58 58 57 56 55 53 53 52 51 49 48 48 47 46 45 44 44 43 42 41 41 41 40 40 39 39 39 39 38 38 38 39 39 39 39 40 41 42 43 45 47 49 51 52 54 57 58 60 62 63 65 66 67 67 68 68 69 69 70 70 71 71 72 72 72 72 72 72 72 71 71 71 70 70 69 69 69 68
57 57 57 57 56 56 55 54 53 51 50 49 47 46 45 44 43 42 41 41 41 40 39 39 38 38 38 37 37 37 37 37 37 36 36 36 35 35 35 35 36 35 35 35 36 37 37 38 39 41 43 44 46 49 51 53 55 57 59 61 62 64 65 66 67 68 69 70 71 71 72 72 72 73 72 72 72 72 71 71 70 70 70 69 69 69
54 54 53 52 51 50 49 47 45 44 43 41 40 40 39 38 38 37 37 37 37 37 36 36 37 36 36 36 36 36 36 37 37 36 36 35 35 34 34 34 35 34 33 33 34 34 34 34 35 36 37 38 40 42 44 46 48 50 52 54 56 58 60 62 64 65 67 68 69 70 71 72 72 73 73 73 72 72 72 71 71 70 70 69 69 69
50 48 47 45 44 42 41 39 38 37 37 36 36 36 35 35 36 36 35 36 36 37 36 36 37 37 37 36 36 36 37 38 38 38 37 37 36 35 34 34 35 35 33 32 32 33 33 32 33 34 34 35 36 37 38 40 42 44 45 48 50 52 54 56 59 61 63 64 66 68 69 70 71 72 72 72 72 72 72 71 71 70 70 69 69 68
43 41 39 38 36 35 35 34 33 33 34 34 34 34 34 35 35 36 36 36 37 37 38 38 38 38 38 38 37 37 37 38 40 40 39 38 38 37 36 36 36 36 35 33 33 32 32 32 32 32 33 33 34 35 35 36 37 39 40 42 44 46 48 50 52 55 57 59 61 63 65 67 68 70 71 71 72 72 72 72 71 71 70 69 69 68
36 34 33 32 32 32 32 32 32 33 33 34 34 34 35 35 36 36 37 37 37 38 38 39 39 39 39 39 38 38 37 38 40 41 40 39 39 38 37 37 37 38 36 35 34 33 32 32 32 32 32 32 33 33 34 35 35 36 37 38 39 40 42 44 46 48 50 52 55 57 59 61 63 65 67 68 69 70 71 71 71 71 70 69 69 68
31 30 30 30 31 31 31 32 32 33 34 34 35 35 36 36 36 37 37 37 38 38 38 38 39 39 38 38 38 38 37 38 39 40 40 40 39 39 38 37 38 38 38 36 35 34 34 33 33 32 32 32 32 32 33 33 34 35 35 36 36 37 38 39 40 42 44 46 48 50 52 55 57 59 61 63 65 67 68 69 70 70 69 69 69 68
29 29 29 30 31 32 32 33 33 34 35 35 36 36 36 36 37 37 37 37 37 38 38 38 38 39 38 38 38 38 37 37 39 40 40 39 39 39 38 37 38 38 38 37 36 35 35 35 34 33 32 31 31 31 31 32 33 33 34 35 35 35 35 36 36 37 39 40 42 44 46 48 50 52 54 57 59 61 63 65 66 67 67 68 67 67
29 30 30 31 32 33 33 34 34 34 35 36 36 36 36 37 37 37 37 37 37 38 38 38 38 38 38 38 38 37 37 37 38 39 40 39 39 38 37 37 37 38 37 37 36 35 35 35 34 34 32 32 31 31 31 31 32 32 33 34 34 34 34 35 35 35 35 36 37 39 40 42 44 46 48 50 52 55 57 59 61 62 64 64 65 65
30 31 31 32 33 33 34 34 34 34 35 35 36 36 36 37 37 37 37 37 37 38 38 38 38 38 38 37 37 37 37 36 37 38 39 39 39 38 37 36 37 37 37 36 35 35 35 35 34 33 32 32 31 31 31 31 31 32 32 33 33 34 34 34 34 34 34 35 35 36 36 38 39 40 42 44 46 48 50 53 55 57 58 60 61 62
31 32 32 32 33 33 34 34 34 34 35 35 36 36 37 37 37 37 37 37 38 38 38 38 38 38 37 37 37 37 36 35 36 37 38 39 39 38 37 36 36 37 37 36 35 34 34 34 33 32 32 31 31 31 30 30 31 31 31 32 33 33 33 34 34 34 34 34 35 35 35 35 36 37 38 39 40 42 44 46 48 50 52 54 56 57
32 32 32 32 32 33 33 34 34 35 35 36 36 36 37 37 37 38 38 38 38 39 39 39 39 38 38 37 37 36 36 35 35 36 37 38 38 38 37 35 36 36 36 35 34 33 34 34 32 31 30 30 30 30 29 29 30 30 30 31 31 32 33 33 34 34 34 35 35 35 35 35 35 35 35 36 36 37 38 40 41 43 45 47 49 51
31 32 32 32 32 33 33 34 34 35 35 36 36 37 37 38 38 38 38 39 39 39 39 39 39 39 38 37 37 36 36 35 34 35 36 38 38 38 36 35 35 36 37 35 33 33 33 33 32 30 29 29 29 28 28 28 28 29 29 29 30 31 31 32 33 33 34 34 35 35 35 35 35 35 35 35 35 35 35 36 37 38 39 41 43 45
31 31 32 32 33 33 33 34 35 35 36 36 37 37 38 38 38 38 39 39 39 39 40 40 39 39 38 38 37 36 35 34 34 34 35 37 38 37 36 34 34 35 36 35 34 32 32 32 31 30 28 27 27 27 26 26 26 27 27 28 28 29 30 30 31 32 33 33 34 35 35 35 36 36 36 36 35 35 35 34 34 35 36 37 38 40
31 31 32 32 33 33 34 34 35 35 36 36 37 37 38 38 38 39 39 39 39 39 40 39 39 39 39 38 37 36 35 34 34 34 34 36 37 37 36 34 34 35 35 35 34 32 32 31 31 29 28 27 26 26 25 25 25 25 25 26 26 27 28 29 30 30 31 32 33 34 34 35 35 36 36 36 36 36 35 35 35 35 35 35 36 37
31 31 32 32 33 33 33 34 34 35 35 36 37 37 37 38 38 38 39 39 39 39 39 39 39 39 39 38 37 36 35 34 34 34 35 36 37 36 35 34 34 34 35 34 34 32 31 30 30 29 28 26 25 24 23 23 22 23 23 24 24 25 26 27 28 29 30 31 32 32 33 34 34 35 35 36 36 36 36 36 35 35 35 35 35 36
30 30 31 31 32 32 33 33 34 34 35 35 36 36 37 37 37 38 38 39 39 39 39 39 39 39 39 38 38 36 35 34 34 34 35 36 37 36 35 34 34 34 34 34 34 32 30 29 28 28 27 26 24 22 21 21 21 21 21 22 23 24 25 26 27 28 29 30 31 31 32 33 33 34 34 35 35 35 36 36 36 36 36 36 36 36
29 29 30 30 31 31 32 32 33 34 34 35 35 36 36 37 37 37 38 38 38 38 39 39 39 38 38 38 38 37 35 34 34 34 35 37 37 36 35 34 34 34 34 34 34 33 30 27 26 26 26 24 22 21 20 19 20 20 21 21 22 23 24 25 26 27 28 29 30 31 32 32 33 34 34 35 35 36 36 36 36 37 37 37 37 37
27 28 28 29 29 30 31 31 32 32 33 34 34 35 36 36 36 37 37 38 38 38 38 38 38 38 38 38 38 37 36 35 34 34 35 36 37 36 34 34 34 34 33 33 34 34 31 27 24 23 23 23 21 20 19 19 20 20 21 22 22 23 24 25 26 27 28 29 30 31 31 32 33 34 34 35 36 36 37 37 37 38 38 38 38 38
26 26 27 27 28 29 29 30 31 31 32 33 33 34 34 35 35 36 36 37 37 37 37 37 37 37 37 37 36 36 36 35 35 34 34 35 36 35 34 33 33 33 32 31 32 33 32 28 24 22 21 21 21 20 20 20 20 21 22 23 23 23 24 25 26 27 28 29 29 30 31 32 33 34 34 35 36 37 37 38 39 39 39 39 39 39
24 25 25 26 27 27 28 29 29 30 31 31 32 33 33 34 34 34 35 35 35 35 36 36 36 36 36 36 35 35 34 34 34 35 34 35 35 35 33 33 33 32 32 30 30 30 30 28 25 22 21 20 21 21 21 21 22 22 23 24 24 24 24 25 26 27 28 28 29 30 31 32 33 34 34 35 36 37 37 38 39 40 40 41 41 40
23 23 24 24 25 26 27 27 28 29 30 31 31 32 32 33 33 33 33 33 34 34 34 34 34 34 35 35 34 34 33 33 34 34 34 34 34 34 33 32 32 31 31 30 29 28 27 26 25 24 23 21 21 22 23 24 24 24 24 25 25 25 25 25 26 27 28 29 29 30 31 32 33 34 34 35 36 37 37 38 39 40 41 41 42 42
22 22 23 23 24 25 25 26 27 28 29 30 30 31 32 32 32 32 32 32 32 32 32 32 33 33 33 34 34 34 33 33 33 33 33 34 34 34 33 32 31 31 31 30 28 27 26 25 24 24 24 24 23 23 24 26 26 26 26 26 27 27 27 27 27 28 28 29 30 30 31 32 33 34 35 36 37 37 38 39 39 40 41 42 42 43
21 22 22 23 23 24 25 26 26 27 28 29 30 30 31 31 31 31 31 31 31 31 31 31 32 32 32 33 33 33 33 33 32 33 33 33 33 33 33 32 31 30 31 30 28 27 27 26 25 25 26 26 26 25 26 27 28 28 28 28 28 29 29 29 29 30 30 30 31 31 32 33 34 35 36 37 37 38 39 40 40 41 41 42 43 43
22 22 23 23 24 24 25 25 26 27 27 28 29 29 30 30 30 30 30 29 29 30 30 31 31 31 32 32 32 33 32 32 32 32 32 33 33 33 33 32 31 30 31 30 30 29 28 28 27 27 27 28 28 29 29 29 29 30 30 30 31 31 31 30 31 31 31 31 32 32 32 33 34 35 36 37 38 39 40 41 41 42 42 43 43 44
23 24 24 24 25 25 26 26 26 27 27 28 28 29 29 29 28 28 28 28 29 29 29 30 30 31 31 31 32 32 32 32 31 32 32 32 32 32 32 32 31 30 31 31 31 30 30 30 30 29 29 29 30 31 31 32 32 32 32 32 32 32 32 32 32 32 32 32 32 32 33 33 34 35 36 37 38 39 40 41 41 42 43 43 44 44
24 25 25 25 26 26 27 27 27 27 28 28 28 28 28 27 27 27 27 27 28 28 29 29 30 30 30 30 31 31 31 30 30 30 30 31 31 31 32 32 32 31 31 31 31 31 32 32 32 32 32 32 32 32 32 33 34 35 34 34 34 34 34 34 34 34 33 33 33 33 33 34 34 35 36 37 37 38 38 39 40 41 42 43 44 45
25 25 26 26 27 27 28 28 28 28 28 28 27 27 27 26 26 26 26 26 27 27 28 29 29 29 29 29 29 29 29 29 29 29 29 29 30 30 31 31 31 31 31 31 32 32 33 33 34 34 34 35 35 35 34 35 35 36 37 37 36 36 35 35 35 35 34 34 34 34 34 34 34 35 36 37 37 37 37 37 37 38 39 40 42 43
26 26 26 27 27 28 28 28 28 28 28 28 27 27 26 26 25 25 25 25 26 26 27 28 28 28 28 28 28 28 28 28 28 28 28 28 29 29 30 30 31 31 32 32 33 33 34 35 35 35 35 36 37 37 36 36 37 37 38 39 39 38 38 37 37 36 36 35 35 34 34 34 34 35 35 36 36 36 36 36 35 35 36 37 39 40
26 27 27 27 27 28 28 28 28 28 28 27 27 26 25 25 25 24 24 24 25 25 26 27 27 27 27 26 26 26 27 27 27 27 28 28 28 29 29 30 31 31 32 33 33 34 34 35 36 36 37 37 38 38 38 37 37 38 39 40 40 40 39 38 38 37 37 37 36 35 35 35 34 34 34 35 35 35 35 35 34 34 34 34 35 37
27 27 27 27 27 28 28 28 27 27 27 26 26 25 25 24 24 24 24 24 25 25 26 26 26 27 26 26 25 25 25 25 26 27 27 27 28 28 29 29 30 31 32 33 34 34 35 35 36 37 37 38 39 39 39 38 38 39 40 41 42 42 42 40 39 38 38 38 37 36 36 36 35 34 34 34 33 33 33 33 33 33 32 32 33 34
27 27 27 27 27 27 27 27 27 27 26 26 25 25 24 24 24 24 24 24 24 25 25 26 26 26 25 25 24 24 23 24 24 25 26 27 27 28 29 29 30 31 32 33 35 35 35 36 36 37 37 38 39 39 39 39 39 40 40 41 42 43 43 42 40 39 39 38 37 37 37 37 36 35 34 33 32 32 32 32 32 32 31 31 32 32
27 27 27 27 27 27 27 27 27 26 26 25 24 24 24 23 23 24 24 24 25 25 25 26 26 25 25 24 23 23 22 22 22 23 24 26 27 28 29 29 30 31 32 33 35 35 36 36 36 36 37 37 38 38 39 39 40 40 40 41 41 42 42 41 41 40 39 38 38 37 37 37 37 37 35 34 33 32 32 32 32 31 31 31 31 31
27 28 27 27 28 28 27 27 27 26 25 24 24 23 23 23 23 23 24 24 25 25 25 25 25 25 25 24 23 23 22 21 21 21 23 24 25 27 28 29 31 32 33 34 35 36 36 37 37 37 37 37 37 37 37 38 39 40 40 40 41 41 41 40 39 39 38 38 38 37 37 38 38 38 36 35 34 33 32 32 32 31 31 30 30 30
28 28 28 27 27 27 27 27 26 25 24 24 23 23 23 23 23 23 23 24 24 25 25 25 25 25 25 24 24 23 23 22 21 21 21 23 24 26 27 29 30 32 33 34 35 36 36 37 37 37 36 36 36 36 36 36 38 39 40 40 40 40 40 39 38 37 37 37 37 37 38 38 38 38 38 37 36 35 34 33 32 32 31 31 30 30
27 27 27 27 27 27 27 26 26 25 24 23 23 22 22 23 23 23 24 24 24 25 25 25 25 25 25 24 24 24 24 23 23 22 22 23 24 25 27 28 30 32 33 34 35 36 36 36 36 36 35 35 35 35 35 35 36 38 39 39 39 39 38 37 36 36 36 36 36 36 37 38 38 39 39 38 38 37 36 35 34 33 32 32 31 31
27 27 27 27 27 26 26 26 25 24 24 23 22 22 22 22 23 24 24 25 25 25 26 26 26 25 25 25 24 24 24 25 24 24 25 25 26 27 28 29 30 32 33 34 35 36 36 36 36 35 34 34 35 35 35 36 36 37 38 38 38 38 37 36 35 34 34 35 35 35 36 37 38 38 39 39 39 39 38 37 35 34 33 33 32 32
27 27 27 27 26 26 26 25 25 24 24 23 23 23 23 23 23 24 24 25 26 26 26 26 26 26 26 26 25 25 25 25 26 26 26 27 28 29 30 31 32 33 34 35 36 36 37 37 36 35 34 34 35 36 37 37 37 38 38 38 38 38 37 36 35 34 33 34 34 34 35 35 36 37 38 39 40 40 39 38 37 36 35 34 34 33
26 26 26 26 26 26 26 25 25 25 24 24 23 23 23 24 24 24 25 26 26 26 26 26 26 26 26 26 26 26 26 26 26 27 27 28 29 30 31 32 34 35 36 37 37 38 39 39 38 36 34 34 35 37 39 39 40 40 39 39 38 38 37 36 35 34 34 33 33 34 34 34 35 36 37 38 39 40 40 39 38 37 36 36 35 35
Wind_Direction
298 298 297 297 296 296 295 295 294 294 294 294 293 293 293 292 292 291 290 290 289 288 288 287 287 287 287 286 286 286 286 285 285 285 284 284 284 283 283 282 282 281 280 279 278 277 276 275 274 274 273 272 272 271 270 270 269 269 269 269 269 268 267 266 265 264 263 263 263 264 265 266 267 267 265 263 260 258 255 253 252 251 250 251 251 252
298 298 298 297 297 296 296 296 295 295 295 295 295 294 294 293 293 292 291 290 290 289 289 288 288 288 287 287 287 286 286 286 285 285 285 284 284 284 283 282 282 281 280 280 279 278 277 276 275 274 273 272 272 271 270 269 269 268 268 268 268 268 267 266 265 264 263 262 262 263 263 264 265 266 266 265 262 259 256 254 252 251 251 251 252 252
298 298 298 298 298 298 297 297 297 296 296 296 296 295 295 294 293 292 291 290 290 289 289 288 288 288 287 287 287 286 286 286 285 285 284 284 283 283 282 282 281 280 280 279 278 278 277 276 275 274 273 273 272 271 270 269 269 268 268 267 267 267 267 266 265 264 263 262 261 261 261 262 263 264 265 265 265 263 260 258 255 254 253 253 253 253
298 298 298 298 298 298 298 298 298 298 297 297 296 295 295 294 293 292 291 291 290 290 289 289 288 288 287 287 287 286 286 285 285 284 283 283 282 282 281 280 280 279 278 278 277 276 276 275 274 274 273 272 271 271 270 269 268 268 267 267 266 266 266 266 265 264 263 262 261 260 260 260 260 261 262 263 264 264 264 262 260 258 257 256 256 255
298 298 298 298 298 298 298 298 298 297 297 296 296 295 295 294 293 293 292 292 291 290 290 289 289 288 287 287 286 286 285 285 284 283 283 282 282 281 280 280 279 278 278 277 276 275 275 274 273 273 272 271 270 270 269 268 268 267 266 266 266 265 265 265 265 264 263 262 261 260 259 259 259 259 259 260 261 262 263 263 263 262 261 259 259 258
297 297 297 297 297 297 297 297 297 296 296 296 295 295 295 294 294 293 293 292 292 291 291 290 289 288 288 287 286 286 285 285 284 284 283 283 282 281 281 280 279 279 278 277 276 275 275 274 273 272 271 271 270 269 268 267 267 266 265 265 264 264 264 264 264 263 263 262 262 260 259 259 258 258 258 258 259 260 261 261 262 262 262 261 260 260
297 296 296 296 296 296 296 296 296 296 296 296 295 295 295 294 294 294 293 293 292 292 291 290 290 289 288 288 287 287 286 286 285 285 284 284 283 283 282 281 281 280 279 278 277 276 276 275 274 273 272 271 270 269 268 267 266 265 265 264 263 263 263 262 262 262 262 262 261 261 260 259 258 257 257 257 258 258 259 260 260 261 261 261 261 260
296 296 296 296 296 296 296 296 296 295 295 295 295 295 294 294 294 293 293 293 292 292 291 291 290 290 289 289 289 288 288 287 287 286 286 285 285 284 284 283 282 282 281 280 279 278 277 276 275 274 273 272 271 270 268 267 266 265 264 263 263 262 261 261 261 261 260 260 260 260 260 259 258 258 257 257 257 257 257 258 259 260 260 260 260 260
295 295 295 295 296 296 296 296 296 295 295 295 295 294 294 294 293 293 293 292 292 292 292 292 291 291 290 290 290 290 289 289 289 288 288 287 286 286 285 284 284 283 282 281 280 280 279 278 277 276 274 273 272 271 270 269 268 266 265 264 263 262 261 261 260 260 259 259 259 259 259 259 258 258 257 257 256 256 256 257 257 258 259 259 260 260
295 295 296 296 296 296 295 295 295 295 295 295 294 294 294 293 293 293 293 293 293 293 293 293 292 292 292 292 291 291 291 291 291 290 290 289 288 287 287 286 285 284 283 283 282 281 280 279 278 277 276 275 274 273 272 270 269 268 267 266 264 263 262 261 261 260 259 259 259 258 258 258 258 258 257 257 256 256 256 256 256 257 257 258 259 259
295 296 296 296 296 295 295 295 294 294 294 294 294 294 294 294 294 294 294 294 294 294 294 294 294 294 294 294 294 294 294 294 294 293 293 292 291 290 290 289 288 287 286 285 284 282 281 280 280 279 278 277 276 275 273 272 271 270 269 267 266 265 264 263 262 261 260 260 259 258 258 258 258 257 257 257 256 256 256 255 255 255 256 256 257 257
296 296 296 295 295 295 295 294 294 294 295 295 295 295 295 296 296 296 297 297 297 297 297 297 297 298 298 299 298 298 298 298 298 297 297 297 296 295 295 294 292 291 290 288 287 286 284 283 282 281 280 279 277 276 275 274 273 272 270 269 268 266 265 264 263 262 262 261 260 260 259 259 258 258 257 257 257 256 256 255 255 255 255 255 255 256
296 296 296 295 295 295 295 295 295 295 296 296 297 297 298 298 299 299 300 300 300 301 301 301 302 302 303 303 303 303 303 302 302 302 302 301 301 301 300 299 297 296 295 294 292 290 289 287 286 284 283 281 280 279 277 276 275 274 272 271 270 268 267 266 265 264 263 262 261 261 260 260 260 259 259 258 258 257 257 256 255 255 254 254 254 254
296 296 295 295 295 295 296 296 297 298 298 299 300 300 301 301 302 303 303 303 304 304 305 305 305 305 305 305 305 305 305 304 304 303 303 303 303 303 303 301 300 300 299 298 297 295 294 292 290 289 287 285 283 282 280 279 277 276 275 273 272 271 269 268 267 265 264 263 263 262 262 261 261 261 260 260 260 259 258 258 257 256 255 254 254 253
296 296 296 296 297 298 298 299 300 301 302 302 303 304 304 305 305 306 306 305 305 305 306 305 305 305 305 305 305 305 304 303 302 302 302 301 302 302 302 301 300 300 300 300 299 298 298 296 295 293 291 290 288 286 284 282 280 279 278 276 275 273 272 270 269 268 266 265 264 263 263 262 262 262 261 261 261 261 260 260 259 258 257 256 255 254
297 297 298 299 300 301 302 303 304 304 305 306 306 306 306 306 306 306 306 305 305 304 304 303 303 303 302 303 303 303 303 302 301 299 299 299 299 299 299 298 298 297 298 298 298 298 298 297 296 295 295 293 292 290 288 286 284 283 281 279 278 276 275 273 272 270 269 267 266 265 264 263 263 262 262 262 262 262 262 261 261 260 259 258 257 256
299 300 301 302 303 305 305 306 307 307 307 307 306 306 306 306 305 305 304 304 303 303 303 303 302 302 302 302 302 302 302 301 300 299 298 298 298 298 298 297 295 295 295 295 295 295 296 296 295 295 295 294 294 293 291 290 288 287 285 283 281 280 278 276 275 273 272 270 269 268 266 265 264 264 263 263 263 263 263 262 262 262 261 261 260 258
303 304 305 306 307 307 307 308 307 307 306 305 305 305 304 304 304 303 303 303 303 303 303 303 303 303 303 303 303 303 303 302 300 299 299 298 298 298 298 297 295 294 294 294 293 293 293 293 293 293 293 294 293 293 293 292 291 290 289 288 286 284 282 281 279 277 276 274 272 271 269 268 267 266 265 264 264 263 263 263 263 262 262 262 261 261
307 307 308 308 308 307 307 307 306 305 304 304 303 303 303 303 303 303 303 304 304 304 304 304 304 304 305 305 305 305 305 303 302 301 300 300 299 299 299 298 296 295 294 294 293 292 291 290 290 290 291 291 291 292 292 292 292 292 291 291 290 289 287 286 284 282 281 279 277 275 273 272 270 269 267 266 265 264 264 263 263 263 263 262 262 262
309 308 308 308 307 306 306 305 304 304 303 303 303 303 303 304 304 304 304 305 305 305 305 305 305 306 306 306 306 306 306 305 303 302 302 301 301 300 300 300 298 296 296 295 294 293 292 290 289 288 288 288 288 289 290 290 291 291 291 292 291 291 290 290 288 287 285 283 282 280 278 276 274 272 271 269 268 267 266 265 264 264 263 263 263 262
309 308 307 306 306 305 305 304 304 304 304 304 304 304 305 305 305 306 306 306 306 306 306 306 306 307 307 307 307 307 307 306 305 304 303 303 302 301 302 301 300 298 297 297 296 295 294 292 291 290 289 288 287 287 287 288 288 289 289 290 290 291 291 290 290 289 288 287 285 284 282 280 278 276 274 272 271 270 268 267 266 265 265 264 263 263
308 307 306 305 305 305 305 305 305 305 305 305 305 305 306 306 306 306 307 307 306 306 306 306 306 307 307 307 307 307 307 307 306 305 304 303 303 302 303 303 301 300 299 299 299 298 296 294 293 292 291 290 289 287 287 286 286 286 286 287 287 288 289 289 289 289 289 288 287 286 285 284 282 280 278 276 275 273 271 270 269 268 267 266 265 264
306 306 306 306 305 305 306 306 306 306 306 306 306 306 306 307 307 307 307 307 307 306 306 306 307 307 307 308 308 308 308 308 308 307 305 304 303 304 304 304 303 301 300 300 300 300 298 296 295 295 294 293 291 289 288 287 285 284 284 284 284 285 285 286 287 287 287 288 288 287 287 286 285 284 282 281 279 277 275 274 272 270 269 268 267 266
306 306 306 306 307 307 307 307 307 307 306 306 306 307 307 307 307 307 307 307 307 307 307 307 307 307 308 308 308 308 309 310 309 308 306 305 304 304 305 305 304 302 301 301 302 301 299 298 297 297 296 294 293 291 290 288 286 285 284 283 283 283 283 284 285 285 286 286 287 287 287 287 287 287 286 285 284 282 280 278 276 274 272 270 269 267
307 307 307 307 308 308 308 307 307 307 307 307 307 307 307 307 308 308 308 308 308 308 307 307 308 308 309 309 309 309 310 310 310 308 307 306 304 304 305 306 305 303 302 302 302 301 299 298 298 298 297 295 293 292 291 289 287 286 285 284 283 283 283 283 284 284 285 285 286 286 287 287 288 288 288 288 287 286 285 283 281 279 276 274 272 270
308 308 309 309 309 308 308 308 308 308 308 308 308 308 308 308 308 308 308 308 308 308 308 308 308 309 309 309 309 309 310 310 310 308 307 305 304 304 305 306 305 303 302 303 303 302 300 299 299 299 298 295 294 293 292 290 289 287 287 286 285 285 284 284 284 284 285 285 286 286 287 288 288 288 289 289 288 288 287 286 284 283 281 279 276 274
309 310 309 309 309 309 309 308 308 308 308 309 309 309 309 309 309 309 308 308 308 308 308 308 308 309 309 309 309 309 309 310 309 308 306 304 303 303 305 307 306 304 303 304 304 303 301 300 300 300 298 296 295 293 292 291 290 289 288 287 287 286 286 286 286 286 286 286 287 287 288 288 289 289 289 289 289 289 288 287 286 285 283 282 280 278
310 310 310 309 309 309 309 309 309 309 309 309 309 309 310 310 309 309 308 309 309 308 308 308 309 309 309 309 308 309 309 309 309 308 306 304 303 303 306 308 307 306 306 305 304 303 302 301 301 300 299 297 296 295 293 292 291 290 289 289 288 288 288 287 287 287 288 288 288 288 289 289 289 290 290 290 290 289 289 288 287 286 284 283 282 280
310 310 309 309 309 309 309 310 310 310 310 310 310 310 310 310 309 309 309 309 309 309 309 309 309 309 309 309 309 309 310 310 309 308 306 305 304 305 308 309 308 308 308 307 304 303 302 302 302 301 300 299 298 297 296 295 294 293 292 291 290 290 290 289 289 289 289 289 289 289 290 290 290 290 290 290 289 289 289 288 287 286 285 283 282 281
310 309 309 309 309 310 310 310 310 310 310 310 310 310 310 310 310 309 310 310 310 310 310 310 310 311 311 311 311 311 311 311 310 308 307 306 305 306 309 310 309 310 310 309 306 304 303 303 303 303 302 301 301 300 300 299 298 297 295 294 293 292 292 291 290 290 290 290 290 290 290 290 290 290 289 289 289 289 288 288 287 286 285 284 283 282
309 309 309 310 310 310 311 311 311 311 311 311 310 310 310 310 310 310 311 311 311 311 311 312 312 312 312 312 312 312 312 312 311 309 308 306 306 307 310 310 310 310 311 310 308 307 306 305 305 305 303 303 303 303 302 302 301 299 298 296 295 294 293 292 292 291 290 290 290 289 289 289 288 288 288 288 287 287 287 287 286 285 284 284 283 282
311 311 311 311 311 311 311 311 311 311 311 311 311 311 311 311 311 311 311 312 312 313 313 313 313 314 314 314 313 313 313 313 311 309 308 307 306 308 310 310 310 310 311 311 309 308 308 309 308 307 305 305 304 304 304 302 301 300 298 296 295 295 294 293 292 291 291 290 289 288 287 287 286 286 285 285 285 285 285 285 284 284 284 283 283 282
313 313 313 313 313 312 312 312 312 312 312 312 312 312 312 312 312 312 313 313 313 314 314 315 315 315 315 314 314 314 314 313 312 310 309 308 308 309 310 310 310 311 311 311 310 309 308 309 310 309 307 306 306 305 304 303 301 299 298 297 296 295 295 294 293 292 291 290 289 287 286 286 285 284 283 283 283 282 282 282 282 282 282 282 282 281
315 314 314 314 314 314 314 314 314 314 314 314 314 314 314 314 314 314 315 315 315 315 315 315 315 316 316 316 315 315 315 314 313 312 311 310 309 310 311 311 312 312 311 311 311 309 308 309 309 309 308 306 306 306 306 304 303 301 300 299 299 297 296 295 293 292 291 289 288 287 287 286 285 284 283 283 282 282 281 281 281 281 281 281 281 280
317 317 316 316 316 316 316 317 317 317 317 317 317 317 317 317 317 317 317 317 317 317 317 317 317 317 317 317 317 317 317 316 314 313 313 312 311 312 312 313 314 313 312 312 312 311 310 310 310 310 309 308 307 307 307 307 305 304 303 303 302 301 299 298 295 293 291 290 288 288 287 286 286 285 284 284 283 282 281 280 280 280 280 280 280 280
321 320 320 319 319 319 320 320 320 320 320 320 320 319 319 319 319 319 319 319 319 318 318 318 318 319 319 319 319 319 318 317 316 315 314 314 313 313 313 314 315 315 313 313 313 313 312 312 312 312 311 310 309 309 309 308 307 307 307 307 306 304 303 301 299 297 294 292 291 290 289 288 287 286 285 284 283 282 281 280 279 279 279 279 279 279
325 324 324 323 323 323 323 323 323 322 322 322 322 322 321 321 321 321 321 320 320 320 320 320 320 321 321 321 320 320 319 318 318 317 316 315 314 314 314 315 315 315 314 313 313 313 313 313 313 313 312 312 312 311 311 310 310 310 310 310 309 307 306 304 302 300 298 296 294 293 291 290 288 287 285 284 282 281 280 279 278 277 277 277 277 277
328 328 327 326 326 326 325 325 325 325 325 324 324 323 323 323 322 322 322 322 322 321 321 321 322 322 322 322 321 320 320 319 318 317 316 315 314 314 313 314 314 314 314 313 313 313 313 313 313 313 313 313 312 312 312 312 312 312 312 311 310 308 307 306 303 301 300 298 297 295 294 292 291 289 287 286 284 282 281 279 278 277 276 275 275 275
330 330 329 328 328 327 327 327 327 327 327 326 326 325 325 325 324 324 324 323 323 323 322 322 322 322 322 322 321 320 319 318 317 316 315 314 314 313 312 312 313 313 313 312 312 312 312 312 313 313 313 313 313 313 313 313 314 314 313 311 310 309 308 306 304 303 301 300 298 297 295 294 293 292 291 289 288 286 284 282 280 278 276 275 274 273
331 331 330 329 329 328 328 328 328 328 328 328 328 327 327 326 326 326 325 325 324 324 323 323 323 323 323 322 321 319 318 317 317 316 315 314 313 312 311 311 311 311 311 311 311 312 311 311 312 312 313 313 313 314 314 314 315 315 314 313 311 310 308 307 305 304 302 300 299 297 296 294 293 292 292 291 290 289 288 286 284 282 279 276 274 273
332 331 331 330 330 329 329 329 329 329 329 329 328 328 328 327 327 327 326 326 325 324 323 323 323 322 322 321 320 319 317 317 316 315 314 312 311 310 309 309 309 309 309 309 310 310 310 310 310 311 312 313 313 314 315 316 316 316 315 314 312 310 308 307 306 305 302 300 298 297 295 294 292 291 291 290 290 290 290 289 288 285 282 279 276 274
332 331 331 330 330 330 329 329 329 329 329 329 329 328 328 328 328 328 327 326 325 324 323 322 322 322 322 320 319 317 316 316 315 314 312 311 309 308 307 307 307 307 307 307 308 308 309 309 309 310 311 312 313 314 315 317 317 317 316 315 313 311 308 307 306 305 303 301 299 297 295 293 292 290 290 289 290 290 290 290 289 287 284 282 279 276
331 331 330 330 330 330 329 329 329 329 329 329 329 328 328 328 328 328 328 327 326 325 324 323 323 322 322 321 319 317 315 314 313 311 310 309 308 306 305 305 305 304 305 305 305 306 307 308 308 310 311 312 313 314 316 317 318 317 316 315 313 311 309 308 307 305 303 301 298 296 294 292 290 288 288 288 288 289 289 289 288 287 286 283 281 278
331 330 330 330 330 329 329 330 330 330 329 329 329 328 328 328 328 328 328 327 326 325 324 323 323 322 321 320 318 316 314 312 310 308 307 306 305 304 304 303 303 303 303 303 304 305 306 307 308 309 311 312 313 314 316 317 317 317 316 314 313 311 309 308 307 304 302 299 296 293 291 289 288 286 285 286 286 287 287 287 287 287 286 285 283 280
330 330 330 330 330 330 330 331 330 330 330 329 328 328 327 327 327 327 327 326 326 325 324 324 323 322 321 320 318 315 313 310 308 306 304 303 303 302 302 302 302 302 302 303 303 304 304 305 307 309 310 311 313 314 315 316 316 315 315 313 311 310 308 307 306 304 301 297 294 292 290 287 286 284 283 283 283 284 284 285 286 286 286 285 284 282
329 329 330 331 331 331 332 331 331 330 330 329 327 327 326 325 325 325 325 325 325 325 324 324 323 322 321 320 318 315 312 310 307 304 302 301 300 301 301 301 302 302 302 302 303 303 304 305 307 308 310 311 313 314 315 315 315 314 313 312 311 309 308 307 305 303 300 297 294 291 288 286 284 283 282 282 281 281 281 283 284 285 285 285 284 283
329 330 331 331 332 332 332 331 331 330 329 328 327 326 325 324 324 324 325 325 325 325 325 324 323 322 322 321 319 316 314 311 309 306 303 302 300 300 300 301 301 302 302 302 303 303 304 305 307 308 309 310 312 313 314 314 313 313 313 312 310 309 307 306 304 302 299 296 293 290 288 286 284 283 282 282 281 280 280 281 282 283 284 284 284 284
330 331 331 332 332 332 332 332 331 330 329 327 326 325 325 324 324 324 325 325 325 326 326 325 324 323 322 321 319 318 316 314 313 311 309 306 304 303 302 302 301 302 302 302 303 304 305 306 307 308 309 310 311 312 313 314 314 314 313 313 311 310 308 306 303 301 298 295 292 290 287 286 285 284 283 282 282 281 281 281 282 282 283 283 283 283
331 332 332 332 333 333 333 332 331 330 329 327 326 326 325 325 325 325 325 326 326 327 327 326 326 325 324 323 322 320 318 317 316 315 314 312 309 307 306 304 304 303 303 303 304 305 306 307 308 309 310 311 312 313 314 315 316 316 316 315 314 312 309 306 303 301 298 294 291 289 287 285 284 283 283 283 282 282 282 282 282 282 282 282 282 282
332 332 333 333 333 333 333 333 332 331 330 328 327 326 326 326 326 325 326 326 327 328 328 328 328 327 327 326 325 324 323 322 320 319 318 316 313 311 310 308 307 306 306 306 307 307 308 308 310 311 313 314 315 316 317 318 319 320 319 318 317 315 312 309 306 302 299 295 292 289 287 285 284 283 283 283 283 282 282 282 282 282 282 282 281 280
334 334 334 334 334 335 335 334 334 332 331 329 328 327 327 327 326 326 326 327 327 328 329 330 329 329 329 329 328 328 327 325 324 322 320 318 316 314 312 311 310 310 310 310 310 310 311 311 312 313 316 318 318 319 319 321 322 322 322 321 320 318 316 313 310 307 304 300 297 294 291 289 287 285 284 284 283 283 282 282 282 282 282 281 280 279
Height
3044 3042 3042 3041 3040 3039 3037 3037 3036 3035 3033 3032 3032 3031 3030 3029 3028 3027 3026 3025 3024 3022 3021 3020 3019 3018 3017 3015 3014 3013 3013 3012 3011 3009 3009 3008 3007 3006 3005 3005 3004 3003 3003 3002 3002 3001 3001 3000 3000 2999 2999 2998 2998 2998 2997 2997 2997 2997 2996 2996 2996 2996 2996 2996 2996 2996 2996 2997 2997 2997 2996 2996 2996 2996 2996 2996 2996 2995 2995 2995 2995 2996 2996 2996 2996 2996
3039 3037 3037 3036 3036 3035 3032 3031 3031 3031 3029 3027 3027 3026 3026 3025 3023 3022 3021 3021 3019 3018 3017 3015 3014 3013 3012 3011 3010 3009 3008 3007 3006 3005 3004 3003 3002 3001 3000 2999 2999 2998 2997 2997 2996 2996 2995 2995 2994 2994 2993 2993 2993 2992 2992 2992 2992 2991 2991 2991 2991 2991 2991 2991 2991 2991 2991 2991 2992 2992 2992 2992 2992 2992 2992 2992 2992 2992 2991 2991 2991 2991 2992 2992 2992 2992
3035 3033 3031 3030 3030 3029 3027 3026 3025 3025 3025 3023 3022 3021 3021 3020 3019 3017 3017 3016 3015 3013 3012 3011 3010 3009 3007 3006 3005 3004 3003 3002 3001 3000 2999 2998 2997 2996 2995 2994 2993 2993 2992 2991 2991 2990 2989 2989 2988 2988 2988 2987 2987 2987 2987 2986 2986 2986 2986 2986 2985 2985 2985 2986 2986 2986 2986 2986 2986 2986 2987 2987 2987 2987 2987 2987 2987 2987 2987 2987 2987 2987 2987 2987 2988 2988
3032 3030 3027 3026 3025 3024 3023 3021 3021 3020 3019 3018 3017 3016 3016 3015 3014 3012 3012 3011 3010 3009 3007 3007 3006 3004 3003 3001 3000 3000 2999 2997 2996 2995 2994 2993 2992 2991 2990 2989 2988 2987 2986 2985 2985 2984 2983 2983 2982 2982 2982 2982 2981 2981 2981 2981 2980 2980 2980 2980 2980 2980 2980 2980 2980 2980 2980 2980 2980 2981 2981 2981 2982 2982 2982 2982 2982 2982 2982 2982 2982 2983 2983 2983 2984 2984
3028 3026 3024 3022 3021 3020 3019 3017 3017 3016 3014 3014 3013 3012 3011 3010 3009 3007 3006 3006 3005 3004 3002 3001 3000 2999 2998 2997 2995 2994 2993 2992 2991 2990 2988 2987 2986 2985 2984 2983 2982 2981 2980 2979 2979 2978 2977 2977 2976 2976 2976 2975 2975 2975 2975 2974 2974 2974 2974 2974 2974 2974 2974 2974 2974 2974 2974 2974 2974 2975 2975 2975 2975 2976 2976 2976 2976 2977 2977 2977 2977 2978 2978 2978 2979 2979
3024 3023 3021 3019 3018 3017 3015 3014 3013 3012 3011 3009 3008 3007 3006 3005 3003 3002 3001 3000 2999 2998 2997 2995 2994 2993 2992 2991 2990 2988 2987 2987 2985 2984 2983 2982 2980 2979 2978 2977 2976 2975 2974 2973 2972 2972 2971 2971 2970 2970 2969 2969 2969 2968 2968 2968 2968 2968 2968 2967 2967 2967 2967 2967 2967 2967 2968 2968 2968 2968 2968 2969 2969 2969 2969 2969 2970 2970 2971 2971 2972 2972 2972 2973 2973 2974
3020 3019 3017 3016 3014 3013 3012 3010 3009 3007 3007 3005 3003 3002 3001 3000 2998 2997 2995 2994 2993 2992 2991 2989 2988 2987 2986 2985 2983 2982 2981 2980 2979 2978 2977 2976 2974 2973 2972 2971 2970 2968 2968 2967 2966 2965 2965 2964 2964 2963 2963 2963 2962 2962 2962 2962 2962 2962 2961 2961 2961 2961 2961 2961 2961 2961 2961 2961 2961 2962 2962 2962 2962 2962 2963 2963 2964 2964 2964 2965 2965 2966 2967 2967 2968 2968
3016 3015 3013 3012 3011 3009 3007 3006 3004 3003 3002 3001 2999 2997 2996 2995 2993 2992 2990 2989 2987 2986 2985 2983 2982 2980 2979 2978 2977 2976 2974 2973 2972 2972 2970 2969 2968 2967 2966 2964 2963 2962 2961 2960 2960 2959 2958 2958 2957 2957 2956 2956 2956 2956 2956 2955 2955 2955 2955 2955 2955 2954 2954 2954 2954 2954 2954 2954 2954 2955 2955 2955 2955 2956 2956 2957 2957 2957 2958 2959 2959 2960 2960 2961 2962 2962
3013 3011 3009 3008 3007 3006 3004 3002 3000 2998 2998 2997 2994 2992 2991 2990 2988 2987 2985 2984 2982 2980 2979 2977 2976 2974 2973 2972 2971 2969 2968 2967 2966 2965 2964 2963 2962 2961 2960 2958 2957 2956 2955 2954 2953 2952 2952 2951 2950 2950 2949 2949 2949 2949 2949 2949 2949 2949 2949 2948 2948 2948 2948 2948 2948 2947 2947 2947 2947 2947 2948 2948 2948 2949 2949 2950 2950 2951 2952 2952 2953 2953 2954 2954 2955 2956
3009 3008 3006 3004 3002 3002 3001 2998 2995 2993 2993 2992 2990 2987 2986 2985 2983 2982 2980 2979 2977 2976 2974 2972 2971 2969 2968 2966 2965 2964 2963 2961 2960 2959 2958 2957 2956 2955 2953 2952 2952 2950 2949 2948 2947 2946 2945 2944 2944 2943 2942 2942 2942 2942 2942 2942 2942 2942 2942 2942 2942 2942 2942 2942 2942 2941 2941 2941 2941 2941 2941 2941 2941 2942 2942 2943 2943 2944 2945 2946 2946 2947 2947 2948 2949 2950
3005 3003 3002 3001 2998 2997 2996 2994 2991 2989 2988 2987 2985 2982 2981 2979 2978 2977 2975 2973 2972 2971 2970 2967 2966 2965 2963 2962 2960 2959 2958 2957 2955 2954 2953 2952 2951 2949 2948 2947 2946 2945 2944 2943 2942 2941 2940 2938 2937 2937 2936 2936 2935 2935 2935 2935 2935 2935 2935 2936 2936 2936 2936 2936 2936 2935 2935 2935 2934 2934 2934 2934 2935 2935 2935 2936 2937 2937 2938 2939 2940 2940 2941 2942 2943 2943
3001 2999 2998 2996 2994 2992 2991 2989 2987 2985 2983 2982 2981 2979 2976 2975 2974 2972 2971 2968 2967 2967 2965 2963 2962 2960 2960 2958 2956 2955 2954 2953 2952 2950 2949 2948 2947 2945 2944 2943 2942 2941 2940 2939 2937 2936 2935 2934 2932 2931 2931 2930 2929 2928 2928 2928 2928 2928 2928 2928 2929 2929 2929 2929 2929 2929 2929 2929 2929 2928 2928 2928 2928 2928 2929 2929 2930 2930 2931 2932 2933 2934 2935 2935 2936 2937
2996 2995 2993 2992 2989 2988 2986 2985 2983 2981 2979 2978 2977 2975 2972 2971 2969 2968 2967 2965 2963 2962 2962 2960 2958 2957 2956 2955 2953 2952 2950 2949 2948 2947 2946 2945 2943 2942 2941 2939 2938 2937 2936 2935 2933 2932 2931 2930 2928 2927 2926 2925 2924 2923 2922 2922 2921 2921 2921 2921 2922 2922 2922 2922 2923 2923 2923 2923 2923 2923 2923 2922 2922 2922 2923 2923 2923 2924 2925 2925 2926 2927 2928 2929 2930 2931
2992 2990 2989 2987 2985 2983 2982 2981 2979 2977 2975 2974 2972 2971 2969 2967 2966 2965 2964 2962 2960 2959 2959 2957 2956 2954 2954 2952 2951 2949 2948 2947 2946 2945 2944 2942 2941 2940 2938 2937 2935 2934 2934 2932 2931 2929 2928 2927 2925 2923 2922 2922 2920 2918 2917 2917 2916 2915 2915 2915 2915 2915 2915 2915 2916 2916 2916 2917 2917 2917 2917 2917 2917 2917 2917 2917 2918 2918 2919 2919 2920 2921 2922 2922 2923 2924
2987 2986 2984 2983 2981 2980 2978 2977 2975 2973 2972 2970 2969 2968 2966 2965 2963 2962 2962 2960 2958 2957 2957 2955 2954 2952 2952 2950 2949 2947 2946 2944 2943 2942 2942 2940 2939 2938 2937 2935 2932 2932 2931 2930 2928 2926 2925 2924 2922 2921 2919 2918 2917 2915 2914 2912 2912 2911 2910 2909 2909 2909 2909 2909 2909 2909 2909 2910 2910 2911 2911 2911 2911 2911 2912 2912 2912 2912 2913 2913 2914 2915 2915 2916 2917 2918
2983 2982 2981 2979 2978 2976 2975 2973 2972 2970 2969 2967 2967 2965 2964 2962 2961 2960 2959 2958 2956 2955 2954 2953 2952 2951 2949 2948 2947 2946 2944 2941 2940 2939 2939 2938 2936 2935 2934 2932 2930 2929 2928 2928 2926 2924 2922 2921 2920 2918 2917 2915 2913 2912 2911 2909 2908 2907 2906 2905 2904 2904 2903 2903 2903 2903 2903 2903 2903 2904 2904 2905 2905 2906 2906 2906 2907 2907 2907 2908 2908 2909 2910 2911 2911 2912
2980 2979 2977 2976 2975 2973 2972 2971 2969 2968 2967 2965 2964 2963 2962 2961 2959 2958 2957 2956 2954 2953 2952 2950 2949 2948 2946 2946 2945 2943 2942 2939 2936 2935 2936 2935 2933 2932 2931 2930 2927 2926 2925 2925 2924 2922 2920 2918 2917 2916 2914 2912 2911 2909 2908 2906 2905 2904 2902 2902 2901 2900 2899 2898 2898 2897 2897 2897 2897 2897 2898 2898 2899 2899 2900 2900 2901 2901 2901 2902 2902 2903 2904 2905 2906 2907
2977 2976 2975 2973 2972 2971 2970 2968 2967 2966 2965 2964 2962 2961 2960 2959 2958 2956 2955 2953 2952 2950 2949 2947 2946 2945 2943 2942 2941 2939 2939 2937 2934 2931 2931 2931 2930 2928 2927 2927 2924 2922 2922 2922 2921 2919 2917 2916 2915 2913 2912 2910 2908 2907 2905 2904 2902 2901 2900 2898 2897 2896 2895 2894 2894 2893 2893 2892 2892 2892 2892 2892 2893 2893 2893 2894 2894 2895 2895 2896 2896 2897 2898 2899 2900 2901
2975 2974 2972 2971 2970 2969 2968 2967 2966 2964 2963 2962 2961 2959 2958 2957 2955 2954 2952 2951 2949 2948 2946 2944 2943 2942 2941 2939 2937 2936 2935 2934 2931 2928 2927 2927 2927 2925 2924 2923 2921 2919 2918 2918 2917 2916 2914 2913 2912 2911 2909 2907 2906 2904 2903 2901 2900 2898 2897 2896 2894 2893 2892 2891 2891 2890 2889 2888 2888 2887 2887 2887 2887 2887 2887 2888 2888 2888 2889 2890 2890 2891 2892 2893 2894 2895
2972 2971 2970 2969 2968 2967 2966 2965 2964 2962 2961 2959 2958 2957 2955 2954 2953 2951 2950 2948 2947 2945 2943 2942 2940 2939 2937 2937 2935 2933 2932 2930 2928 2925 2924 2924 2923 2921 2920 2920 2918 2916 2914 2914 2913 2912 2911 2909 2908 2907 2907 2905 2903 2902 2900 2899 2897 2896 2894 2893 2892 2891 2889 2888 2887 2887 2886 2885 2884 2883 2883 2882 2882 2882 2882 2882 2882 2883 2883 2883 2884 2885 2886 2887 2887 2888
2971 2970 2968 2968 2967 2965 2964 2963 2962 2960 2959 2957 2955 2954 2952 2951 2950 2948 2947 2946 2944 2942 2940 2939 2937 2936 2935 2933 2932 2930 2928 2927 2925 2922 2920 2920 2919 2918 2917 2916 2914 2912 2911 2910 2910 2909 2907 2906 2905 2904 2903 2902 2901 2899 2898 2897 2895 2893 2892 2891 2889 2888 2887 2886 2885 2884 2882 2882 2881 2880 2879 2879 2878 2878 2878 2877 2877 2878 2878 2878 2878 2879 2880 2881 2882 2882
2969 2968 2967 2966 2965 2963 2962 2960 2959 2957 2956 2954 2952 2951 2950 2948 2947 2945 2944 2943 2941 2939 2937 2936 2935 2933 2932 2931 2929 2927 2925 2924 2922 2919 2917 2916 2915 2914 2914 2913 2911 2909 2907 2907 2906 2905 2903 2902 2901 2901 2900 2899 2897 2896 2895 2894 2892 2891 2889 2888 2887 2885 2884 2883 2882 2881 2880 2879 2878 2877 2876 2876 2875 2874 2874 2873 2873 2873 2873 2873 2874 2874 2875 2875 2876 2877
2967 2966 2965 2964 2962 2961 2959 2958 2956 2955 2953 2952 2950 2948 2947 2945 2944 2942 2941 2940 2938 2936 2935 2933 2932 2931 2929 2928 2926 2924 2922 2921 2919 2917 2914 2913 2912 2911 2910 2909 2908 2906 2904 2903 2903 2902 2900 2899 2898 2897 2897 2895 2894 2893 2892 2891 2889 2888 2887 2886 2884 2883 2882 2881 2879 2878 2877 2876 2875 2874 2873 2873 2872 2871 2871 2870 2870 2870 2870 2870 2869 2870 2870 2870 2871 2871
2965 2964 2962 2961 2960 2958 2957 2955 2953 2952 2950 2949 2947 2946 2944 2942 2941 2939 2938 2937 2935 2933 2932 2930 2929 2927 2926 2925 2923 2922 2920 2918 2917 2914 2912 2910 2908 2907 2907 2906 2905 2902 2900 2900 2900 2899 2897 2895 2895 2895 2894 2892 2891 2890 2889 2888 2887 2885 2884 2883 2882 2881 2879 2878 2877 2876 2875 2874 2873 2872 2871 2870 2870 2869 2868 2868 2867 2867 2867 2866 2866 2866 2866 2866 2866 2866
2963 2961 2960 2958 2957 2956 2954 2952 2951 2949 2947 2946 2944 2943 2941 2940 2938 2937 2935 2933 2932 2930 2928 2927 2926 2924 2923 2922 2921 2919 2917 2916 2914 2912 2909 2907 2905 2904 2904 2904 2902 2899 2897 2897 2897 2897 2895 2893 2892 2892 2891 2890 2888 2887 2886 2885 2884 2882 2882 2880 2879 2878 2877 2876 2875 2874 2873 2872 2871 2870 2869 2868 2867 2867 2866 2865 2865 2864 2864 2863 2863 2863 2862 2862 2862 2862
2960 2959 2957 2956 2954 2953 2951 2950 2948 2946 2945 2943 2942 2940 2938 2937 2935 2934 2932 2930 2929 2927 2925 2924 2922 2921 2920 2919 2918 2916 2915 2914 2912 2910 2908 2905 2902 2901 2901 2901 2900 2897 2894 2894 2894 2894 2892 2890 2889 2889 2888 2887 2886 2885 2884 2882 2881 2880 2879 2878 2877 2876 2875 2874 2872 2872 2871 2870 2869 2868 2867 2866 2865 2864 2864 2863 2862 2862 2862 2861 2861 2860 2859 2859 2858 2858
2958 2956 2955 2953 2952 2950 2949 2947 2946 2944 2942 2940 2939 2937 2936 2934 2932 2931 2929 2927 2926 2924 2922 2921 2920 2918 2917 2916 2915 2914 2913 2912 2910 2908 2906 2903 2901 2899 2898 2898 2897 2895 2892 2891 2891 2890 2889 2888 2887 2886 2886 2885 2883 2882 2881 2880 2879 2878 2877 2876 2875 2874 2873 2872 2871 2870 2869 2868 2867 2866 2865 2864 2863 2862 2861 2861 2860 2859 2859 2858 2858 2857 2857 2856 2856 2855
2956 2954 2952 2951 2949 2948 2946 2945 2943 2941 2940 2938 2936 2934 2933 2931 2930 2928 2926 2925 2924 2922 2920 2919 2917 2916 2914 2913 2912 2912 2911 2909 2907 2905 2903 2901 2898 2897 2896 2896 2894 2892 2890 2889 2887 2887 2887 2886 2884 2883 2882 2882 2881 2880 2879 2878 2877 2876 2875 2874 2873 2872 2871 2870 2869 2868 2867 2866 2865 2864 2863 2862 2861 2860 2859 2858 2857 2857 2856 2855 2855 2854 2854 2853 2853 2852
2953 2952 2950 2949 2947 2946 2944 2942 2941 2939 2937 2936 2934 2932 2930 2929 2927 2926 2924 2922 2921 2920 2917 2916 2915 2914 2912 2910 2909 2909 2908 2907 2905 2902 2900 2898 2896 2894 2894 2893 2891 2889 2888 2886 2884 2884 2884 2884 2882 2881 2879 2879 2878 2878 2877 2876 2875 2874 2873 2872 2871 2870 2869 2868 2867 2866 2865 2864 2863 2862 2861 2860 2859 2858 2857 2856 2855 2854 2853 2852 2852 2851 2850 2850 2850 2849
2952 2950 2948 2947 2945 2943 2942 2940 2938 2937 2935 2933 2932 2930 2928 2927 2925 2923 2922 2920 2919 2917 2915 2914 2912 2911 2910 2908 2906 2905 2905 2904 2903 2900 2898 2895 2893 2892 2892 2891 2889 2887 2886 2884 2881 2880 2880 2881 2881 2879 2877 2876 2876 2876 2875 2874 2873 2872 2871 2870 2869 2868 2867 2866 2865 2864 2863 2862 2861 2860 2859 2858 2857 2856 2855 2853 2852 2852 2851 2850 2849 2848 2847 2847 2846 2846
2950 2948 2947 2945 2943 2942 2940 2938 2936 2935 2933 2931 2930 2928 2926 2924 2923 2921 2919 2918 2916 2915 2913 2912 2910 2909 2907 2906 2904 2902 2901 2901 2900 2898 2896 2893 2891 2889 2890 2888 2887 2885 2884 2882 2880 2877 2876 2877 2877 2877 2876 2874 2873 2873 2873 2872 2871 2870 2869 2868 2867 2866 2865 2864 2863 2862 2861 2860 2858 2857 2857 2855 2854 2853 2852 2851 2850 2849 2848 2847 2846 2845 2844 2843 2843 2843
2948 2946 2945 2943 2941 2940 2938 2936 2935 2933 2931 2930 2928 2926 2924 2923 2921 2919 2917 2916 2914 2913 2911 2909 2908 2907 2905 2904 2902 2901 2899 2898 2897 2895 2894 2891 2889 2887 2887 2886 2884 2882 2882 2881 2879 2876 2873 2872 2873 2874 2873 2872 2871 2871 2871 2870 2869 2868 2867 2866 2865 2864 2863 2862 2861 2859 2858 2857 2856 2855 2854 2853 2852 2851 2850 2849 2847 2847 2845 2844 2843 2842 2841 2840 2839 2839
2946 2944 2943 2941 2939 2938 2936 2934 2933 2931 2929 2928 2926 2924 2922 2921 2919 2917 2916 2914 2912 2911 2909 2908 2906 2904 2903 2902 2900 2899 2897 2896 2894 2892 2891 2889 2887 2885 2885 2884 2882 2881 2879 2878 2877 2875 2873 2871 2871 2870 2870 2870 2869 2868 2868 2867 2867 2866 2864 2863 2862 2862 2861 2860 2858 2857 2856 2855 2854 2852 2851 2850 2849 2848 2847 2846 2845 2844 2843 2842 2840 2839 2838 2837 2836 2836
2944 2942 2941 2939 2938 2936 2934 2932 2931 2929 2927 2926 2924 2922 2921 2919 2917 2916 2914 2912 2911 2909 2908 2906 2904 2902 2901 2899 2898 2897 2895 2894 2892 2890 2888 2887 2885 2883 2882 2881 2880 2878 2877 2876 2875 2873 2872 2871 2869 2868 2867 2867 2867 2866 2865 2864 2863 2863 2862 2861 2860 2859 2858 2857 2856 2855 2853 2852 2851 2850 2849 2847 2847 2845 2844 2843 2842 2841 2840 2839 2838 2837 2835 2834 2833 2832
2942 2941 2939 2937 2936 2934 2932 2931 2929 2927 2926 2924 2922 2920 2918 2917 2915 2914 2912 2911 2909 2907 2906 2904 2902 2901 2899 2897 2896 2894 2893 2892 2890 2888 2886 2885 2883 2881 2880 2879 2878 2876 2874 2873 2872 2871 2869 2869 2868 2867 2865 2864 2864 2864 2863 2862 2861 2860 2859 2858 2857 2856 2855 2854 2853 2852 2851 2850 2848 2847 2846 2845 2844 2843 2842 2841 2840 2838 2837 2836 2835 2834 2833 2831 2830 2829
2940 2938 2937 2935 2934 2932 2931 2929 2927 2925 2924 2922 2920 2918 2917 2915 2913 2912 2910 2909 2907 2905 2904 2902 2900 2899 2897 2896 2894 2892 2891 2889 2888 2886 2884 2882 2881 2879 2877 2876 2875 2874 2872 2871 2870 2869 2867 2866 2866 2865 2864 2862 2861 2861 2861 2860 2858 2857 2856 2856 2855 2853 2852 2851 2850 2848 2847 2846 2846 2845 2843 2842 2841 2840 2839 2838 2837 2835 2834 2833 2832 2831 2830 2829 2827 2826
2937 2936 2934 2933 2932 2930 2928 2927 2925 2923 2922 2920 2918 2917 2915 2913 2912 2910 2908 2907 2905 2903 2902 2900 2898 2897 2895 2893 2892 2890 2889 2887 2886 2884 2882 2881 2879 2877 2876 2874 2873 2872 2871 2869 2868 2867 2866 2864 2863 2862 2862 2860 2859 2858 2857 2857 2856 2855 2854 2853 2852 2850 2849 2848 2847 2845 2844 2843 2842 2841 2840 2839 2838 2837 2835 2834 2833 2832 2831 2830 2829 2828 2827 2826 2825 2823
2935 2933 2932 2931 2929 2927 2926 2925 2923 2922 2920 2918 2917 2915 2913 2911 2910 2908 2906 2905 2903 2901 2900 2898 2897 2895 2893 2892 2890 2889 2887 2886 2884 2883 2881 2879 2878 2876 2874 2873 2872 2871 2869 2867 2866 2865 2864 2862 2861 2860 2859 2858 2857 2856 2855 2853 2852 2852 2851 2850 2849 2847 2846 2845 2843 2842 2841 2839 2838 2837 2837 2835 2834 2832 2832 2830 2829 2828 2827 2826 2825 2824 2823 2822 2821 2821
2933 2931 2930 2928 2927 2925 2924 2922 2921 2919 2918 2916 2915 2913 2911 2909 2907 2906 2904 2902 2901 2899 2898 2896 2895 2894 2892 2891 2889 2887 2886 2884 2883 2881 2880 2878 2877 2875 2873 2871 2870 2869 2868 2866 2865 2863 2862 2861 2859 2858 2857 2855 2855 2854 2852 2851 2850 2848 2847 2846 2845 2844 2843 2841 2840 2838 2837 2836 2835 2833 2832 2832 2830 2829 2827 2826 2825 2824 2823 2822 2822 2821 2820 2819 2817 2817
2931 2929 2928 2927 2925 2923 2922 2920 2919 2917 2916 2914 2912 2911 2909 2907 2906 2904 2902 2901 2899 2897 2896 2895 2893 2892 2891 2889 2888 2886 2884 2883 2881 2880 2878 2877 2875 2873 2872 2870 2868 2867 2866 2864 2863 2862 2860 2859 2857 2856 2855 2853 2852 2850 2850 2849 2847 2846 2844 2842 2841 2840 2839 2838 2836 2835 2834 2832 2831 2830 2828 2827 2827 2825 2824 2822 2821 2820 2819 2818 2817 2817 2816 2815 2814 2813
2929 2928 2927 2925 2923 2922 2920 2918 2917 2915 2914 2912 2911 2909 2907 2905 2904 2902 2901 2899 2898 2896 2895 2893 2892 2891 2889 2888 2886 2885 2883 2881 2880 2878 2877 2875 2874 2872 2870 2869 2867 2866 2864 2862 2861 2860 2858 2857 2855 2854 2853 2851 2849 2848 2847 2846 2845 2843 2841 2839 2837 2836 2835 2834 2833 2832 2830 2829 2827 2826 2825 2823 2822 2821 2820 2819 2817 2817 2816 2815 2814 2813 2812 2811 2810 2809
2928 2927 2925 2923 2922 2920 2919 2917 2915 2914 2912 2910 2909 2907 2905 2903 2902 2901 2899 2898 2896 2895 2893 2892 2891 2889 2888 2887 2885 2883 2882 2880 2878 2877 2875 2874 2872 2871 2869 2867 2866 2864 2862 2861 2859 2858 2857 2855 2853 2852 2851 2849 2847 2845 2844 2843 2842 2841 2839 2837 2834 2832 2831 2831 2830 2829 2826 2825 2824 2823 2821 2820 2818 2817 2816 2815 2814 2813 2812 2811 2810 2809 2808 2807 2806 2805
2927 2925 2924 2922 2921 2919 2917 2916 2914 2912 2911 2909 2907 2905 2903 2902 2900 2899 2897 2896 2895 2893 2892 2890 2889 2887 2886 2885 2883 2882 2881 2879 2877 2875 2874 2872 2871 2869 2867 2866 2864 2862 2861 2859 2857 2856 2855 2853 2852 2850 2848 2847 2845 2843 2842 2840 2839 2838 2836 2834 2832 2830 2827 2827 2827 2826 2824 2822 2821 2819 2818 2817 2815 2814 2812 2812 2811 2810 2809 2808 2807 2806 2805 2804 2803 2802
2925 2924 2922 2921 2919 2918 2916 2914 2912 2911 2909 2907 2906 2904 2902 2900 2898 2897 2896 2894 2893 2892 2890 2889 2887 2886 2884 2883 2882 2881 2879 2878 2876 2874 2872 2871 2869 2867 2866 2864 2862 2861 2859 2857 2855 2854 2852 2851 2850 2848 2847 2845 2843 2842 2840 2838 2837 2835 2834 2832 2830 2828 2825 2824 2823 2822 2821 2819 2818 2816 2815 2813 2812 2810 2809 2808 2807 2806 2805 2804 2803 2802 2802 2801 2800 2799
2924 2922 2921 2919 2918 2916 2914 2913 2911 2909 2908 2906 2904 2902 2901 2899 2897 2896 2894 2892 2891 2890 2888 2887 2885 2884 2882 2882 2880 2879 2877 2877 2875 2873 2871 2869 2867 2866 2864 2862 2861 2859 2857 2855 2853 2852 2850 2849 2848 2847 2846 2844 2842 2840 2838 2837 2835 2833 2832 2830 2828 2826 2823 2822 2821 2819 2817 2816 2814 2813 2812 2810 2808 2807 2806 2805 2804 2803 2802 2801 2800 2799 2798 2798 2797 2796
2922 2921 2919 2918 2916 2915 2913 2911 2910 2908 2907 2905 2903 2901 2899 2898 2896 2894 2893 2891 2890 2888 2887 2885 2884 2882 2881 2879 2878 2877 2876 2875 2873 2872 2870 2868 2867 2864 2862 2861 2859 2857 2855 2853 2852 2850 2848 2847 2846 2845 2844 2842 2841 2839 2838 2836 2833 2831 2830 2828 2826 2823 2821 2820 2818 2817 2814 2812 2811 2810 2809 2807 2805 2803 2802 2801 2800 2799 2799 2798 2797 2796 2795 2795 2794 2793
2921 2920 2918 2917 2915 2913 2912 2910 2908 2907 2905 2904 2902 2900 2898 2897 2895 2893 2892 2890 2888 2887 2885 2884 2882 2881 2879 2878 2876 2875 2873 2872 2872 2871 2869 2867 2866 2864 2862 2860 2857 2856 2854 2852 2850 2848 2847 2846 2844 2843 2842 2841 2839 2838 2837 2835 2833 2830 2828 2826 2824 2821 2819 2817 2816 2814 2812 2810 2808 2807 2805 2803 2802 2800 2799 2798 2797 2796 2795 2795 2794 2793 2792 2792 2791 2790
2920 2918 2917 2915 2914 2912 2911 2909 2907 2906 2904 2902 2901 2899 2897 2895 2893 2892 2890 2888 2887 2885 2884 2882 2881 2879 2878 2876 2875 2873 2872 2870 2869 2868 2867 2866 2864 2862 2861 2859 2857 2854 2852 2850 2848 2847 2845 2844 2843 2842 2841 2840 2838 2837 2835 2834 2832 2829 2826 2824 2821 2819 2817 2815 2813 2811 2809 2807 2805 2803 2802 2800 2799 2797 2796 2794 2793 2792 2792 2791 2791 2790 2790 2789 2788 2787
2918 2917 2916 2914 2912 2911 2909 2908 2906 2904 2903 2901 2900 2898 2896 2894 2892 2890 2888 2887 2885 2884 2882 2881 2879 2878 2876 2875 2873 2872 2871 2869 2868 2867 2866 2864 2862 2861 2859 2857 2855 2853 2851 2849 2847 2846 2844 2842 2842 2841 2840 2838 2837 2835 2833 2831 2829 2827 2824 2821 2819 2816 2813 2811 2810 2808 2806 2804 2802 2800 2799 2797 2796 2794 2793 2791 2790 2789 2788 2788 2787 2787 2787 2786 2785 2784
2917 2916 2914 2913 2911 2910 2908 2906 2905 2903 2901 2900 2898 2896 2894 2893 2891 2889 2887 2886 2884 2882 2881 2879 2878 2876 2875 2873 2872 2871 2869 2868 2867 2866 2864 2862 2861 2859 2857 2855 2853 2851 2849 2847 2846 2844 2842 2841 2840 2839 2838 2837 2834 2832 2830 2828 2826 2824 2821 2818 2816 2813 2810 2807 2806 2804 2802 2800 2798 2797 2795 2794 2793 2792 2790 2788 2786 2785 2785 2784 2784 2783 2783 2783 2782 2781
2917 2915 2913 2912 2910 2908 2907 2905 2903 2901 2900 2898 2896 2894 2893 2891 2889 2887 2886 2884 2882 2881 2880 2878 2877 2875 2873 2872 2871 2869 2868 2867 2865 2864 2862 2861 2859 2857 2855 2853 2851 2849 2847 2845 2843 2842 2840 2838 2837 2836 2836 2835 2832 2829 2826 2824 2822 2820 2817 2815 2812 2809 2806 2804 2802 2800 2798 2797 2795 2793 2792 2791 2789 2788 2787 2785 2783 2781 2781 2780 2780 2780 2780 2779 2778 2777